| time (UTC) | temp F | wind direction | speed knots | gust knots | rain 1hr in | rain 24hr in | rain mn in | humidity % | barometer mb |
| 20260505051550 | 65 | 174 | 1.7 | 5.2 | 0.00 | 0.00 | 0.00 | 82 | 1012.8 |
| 20260505041601 | 65 | 193 | 1.7 | 5.2 | 0.00 | 0.00 | 0.00 | 83 | 1013.2 |
| 20260505040100 | 65 | 180 | 1.7 | 4.3 | 0.00 | 0.00 | 0.00 | 83 | 1013.2 |
| 20260505034605 | 65 | 150 | 0.9 | 5.2 | 0.00 | 0.00 | 0.00 | 83 | 1013.3 |
| 20260505033049 | 66 | 167 | 0.9 | 5.2 | 0.00 | 0.00 | 0.00 | 83 | 1013.3 |
| 20260505031552 | 66 | 155 | 1.7 | 5.2 | 0.00 | 0.00 | 0.00 | 82 | 1013.0 |
| 20260505030107 | 66 | 172 | 0.0 | 2.6 | 0.00 | 0.00 | 0.00 | 82 | 1012.9 |
| 20260505024607 | 67 | 156 | 1.7 | 4.3 | 0.00 | 0.00 | 0.00 | 81 | 1012.8 |
| 20260505023051 | 67 | 174 | 1.7 | 6.1 | 0.00 | 0.00 | 0.00 | 80 | 1012.6 |
| 20260505021554 | 68 | 206 | 0.9 | 6.1 | 0.00 | 0.00 | 0.00 | 79 | 1012.5 |
| 20260505014553 | 68 | 148 | 1.7 | 4.3 | 0.00 | 0.00 | 0.00 | 78 | 1012.1 |
| 20260505013051 | 69 | 161 | 1.7 | 4.3 | 0.00 | 0.00 | 0.00 | 76 | 1012.1 |
| 20260505011555 | 69 | 160 | 0.9 | 5.2 | 0.00 | 0.00 | 0.00 | 76 | 1012.1 |
| 20260505010108 | 70 | 196 | 1.7 | 5.2 | 0.00 | 0.00 | 0.00 | 75 | 1012.1 |
| 20260505004601 | 71 | 0 | 1.7 | 4.3 | 0.00 | 0.00 | 0.00 | 73 | 1012.0 |
| 20260505003052 | 72 | 206 | 2.6 | 8.7 | 0.00 | 0.00 | 0.00 | 71 | 1011.9 |
| 20260505001554 | 73 | 145 | 2.6 | 6.1 | 0.00 | 0.00 | 0.00 | 70 | 1012.1 |
| 20260504234557 | 74 | 208 | 3.5 | 8.7 | 0.00 | 0.00 | 0.00 | 67 | 1012.3 |
| 20260504233052 | 75 | 180 | 2.6 | 8.7 | 0.00 | 0.00 | 0.00 | 65 | 1012.7 |
| 20260504231620 | 76 | 124 | 6.1 | 12.2 | 0.00 | 0.00 | 0.00 | 63 | 1012.7 |
| 20260504230055 | 76 | 157 | 3.5 | 7.8 | 0.00 | 0.00 | 0.00 | 63 | 1013.0 |
| 20260504224600 | 76 | 175 | 4.3 | 10.4 | 0.00 | 0.00 | 0.00 | 64 | 1013.2 |
| 20260504223048 | 77 | 184 | 6.1 | 8.7 | 0.00 | 0.00 | 0.00 | 61 | 1013.4 |
| 20260504221644 | 77 | 178 | 5.2 | 10.4 | 0.00 | 0.00 | 0.00 | 61 | 1013.4 |
| 20260504220052 | 76 | 216 | 4.3 | 9.6 | 0.00 | 0.00 | 0.00 | 62 | 1013.6 |
| 20260504214554 | 78 | 169 | 5.2 | 12.2 | 0.00 | 0.00 | 0.00 | 60 | 1013.7 |
| 20260504213100 | 78 | 188 | 5.2 | 9.6 | 0.00 | 0.00 | 0.00 | 58 | 1013.8 |
| 20260504211554 | 78 | 159 | 5.2 | 10.4 | 0.00 | 0.00 | 0.00 | 57 | 1013.9 |
| 20260504210054 | 78 | 205 | 4.3 | 9.6 | 0.00 | 0.00 | 0.00 | 58 | 1014.3 |
| 20260504204552 | 79 | 176 | 3.5 | 13.0 | 0.00 | 0.00 | 0.00 | 57 | 1014.3 |
| 20260504203052 | 78 | 193 | 4.3 | 7.8 | 0.00 | 0.00 | 0.00 | 56 | 1014.5 |
| 20260504201548 | 77 | 199 | 6.1 | 12.2 | 0.00 | 0.00 | 0.00 | 57 | 1014.7 |
| 20260504200054 | 77 | 200 | 5.2 | 9.6 | 0.00 | 0.00 | 0.00 | 56 | 1015.1 |
| 20260504194601 | 78 | 210 | 6.1 | 9.6 | 0.00 | 0.00 | 0.00 | 54 | 1015.4 |
| 20260504193052 | 78 | 231 | 6.1 | 10.4 | 0.00 | 0.00 | 0.00 | 56 | 1015.8 |
| 20260504191610 | 78 | 173 | 3.5 | 9.6 | 0.00 | 0.00 | 0.00 | 60 | 1015.7 |
| 20260504190048 | 77 | 159 | 5.2 | 13.9 | 0.00 | 0.00 | 0.00 | 55 | 1016.0 |
| 20260504184601 | 77 | 233 | 5.2 | 13.9 | 0.00 | 0.00 | 0.00 | 56 | 1016.3 |
| 20260504183052 | 76 | 233 | 5.2 | 11.3 | 0.00 | 0.00 | 0.00 | 57 | 1016.5 |
| 20260504181552 | 76 | 199 | 5.2 | 11.3 | 0.00 | 0.00 | 0.00 | 57 | 1016.4 |
| 20260504180059 | 76 | 167 | 4.3 | 16.5 | 0.00 | 0.00 | 0.00 | 56 | 1016.5 |
| 20260504174555 | 75 | 238 | 7.0 | 13.9 | 0.00 | 0.00 | 0.00 | 56 | 1016.7 |
| 20260504173056 | 75 | 166 | 8.7 | 13.9 | 0.00 | 0.00 | 0.00 | 55 | 1016.9 |
| 20260504171556 | 75 | 203 | 6.1 | 13.0 | 0.00 | 0.00 | 0.00 | 54 | 1017.2 |
| 20260504140104 | 64 | 203 | 1.7 | 7.0 | 0.00 | 0.00 | 0.00 | 77 | 1018.1 |
| 20260504081601 | 51 | 0 | 0.0 | 0.0 | 0.00 | 0.00 | 0.00 | 95 | 1017.8 |
| 20260504060108 | 53 | 0 | 0.0 | 0.0 | 0.00 | 0.00 | 0.00 | 93 | 1019.0 |